User: anonymous   Login
Location: York
(31.8935°S, 116.7682°E)
Time: 16:29:16
(UTC+08:00)
Language:

Vanguard 2 Rocket - Orbit

View from above orbital plane
View from above orbital plane
View from above satellite
View from above satellite

Ground track
Ground track

The orbit data is extracted from the following two-line orbital elements,

1 00012U 59001B   22267.51736340  .00000092  00000-0  55925-4 0  9997
2 00012  32.9014 329.5279 1665061 115.8056 262.3477 11.44695511374970
Epoch (UTC): 24 September 2022 12:25:00
Eccentricity: 0.1665061
inclination: 32.9014°
perigee height: 553 km
apogee height: 3323 km
right ascension of ascending node: 329.5279°
argument of perigee: 115.8056°
revolutions per day: 11.44695511
mean anomaly at epoch: 262.3477°
orbit number at epoch: 37497

The dashed part of the orbit path shows where the satellite is in the earth's shadow,  

DLR